This demonstration page uses our WeatherBlox Daily Observations layout. Learn more.

Left ArrowRight Arrow

Hourly Observations for May 29, 2022

Temp ( °F °C ) Dew Point ( °F °C ) Humidity (%) Winds ( mph kmh ) Pressure ( in mb ) Visibility ( mi km ) Precip ( " mm )
12:53 am 00:53 Clear 85 29.4 51 10.6 31 31 SSE 21 33 29.52 1000 10 16 0.00 0.00
1:53 am 01:53 Clear 82 27.8 51 10.6 34 34 SSE 14 22 29.50 999 10 16 0.00 0.00
2:53 am 02:53 Clear 79 26.1 50 10 36 36 SE 12 19 29.50 999 10 16 0.00 0.00
3:53 am 03:53 Clear 75 23.9 49 9.4 40 40 SSE 9 15 29.50 999 10 16 0.00 0.00
4:53 am 04:53 Clear 72 22.2 49 9.4 44 44 SSE 7 11 29.51 999 10 16 0.00 0.00
5:53 am 05:53 Clear 70 21.1 49 9.4 47 47 S 8 13 29.52 1000 10 16 0.00 0.00
6:53 am 06:53 Sunny 70 21.1 51 10.6 51 51 SE 10 17 29.53 1000 10 16 0.00 0.00
7:53 am 07:53 Sunny 75 23.9 54 12.2 48 48 SE 10 17 29.53 1000 10 16 0.00 0.00
8:53 am 08:53 Sunny 78 25.6 56 13.3 47 47 SSE 14 22 29.54 1000 10 16 0.00 0.00
9:53 am 09:53 Sunny 84 28.9 51 10.6 32 32 S 8 13 29.54 1000 10 16 0.00 0.00
10:53 am 10:53 Sunny 89 31.7 32 0 13 13 WSW 7 11 29.53 1000 10 16 0.00 0.00
11:53 am 11:53 Sunny 93 33.9 22 -5.6 7 7 SW 14 22 29.50 999 10 16 0.00 0.00
12:53 pm 12:53 Sunny 97 36.1 17 -8.3 5 5 WSW 12 19 29.47 998 10 16 0.00 0.00
1:53 pm 13:53 Sunny 100 37.8 17 -8.3 5 5 WSW 18 30 29.44 997 10 16 0.00 0.00
2:53 pm 14:53 Sunny 102 38.9 16 -8.9 4 4 WSW 20 31 29.40 996 10 16 0.00 0.00
3:53 pm 15:53 Sunny 103 39.4 16 -8.9 4 4 SSW 18 30 29.36 994 10 16 0.00 0.00
4:53 pm 16:53 Sunny 104 40 12 -11.1 3 3 WSW 15 24 29.34 993 10 16 0.00 0.00
5:53 pm 17:53 Sunny 103 39.4 6 -14.4 3 3 SW 17 28 29.32 993 10 16 0.00 0.00
6:53 pm 18:53 Sunny 103 39.4 -7 -21.7 1 1 WSW 16 26 29.31 992 10 16 0.00 0.00
7:53 pm 19:53 Sunny 100 37.8 -7 -21.7 2 2 WSW 18 30 29.30 992 10 16 0.00 0.00
8:53 pm 20:53 Clear 95 35 2 -16.7 3 3 WSW 10 17 29.32 993 10 16 0.00 0.00
9:53 pm 21:53 Clear 83 28.3 3 -16.1 4 4 SE 14 22 29.35 994 10 16 0.00 0.00
10:53 pm 22:53 Clear 89 31.7 50 10 26 26 SSE 24 39 29.36 994 10 16 0.00 0.00
11:53 pm 23:53 Clear 87 30.6 51 10.6 29 29 S 17 28 29.41 996 10 16 0.00 0.00

Powered by AerisWeather